Home > Weather > Jeddah > Past weeks

Flag for Saudi Arabia Weather for the Past 2 Weeks in Jeddah, Saudi Arabia

Now
70 °F

Passing clouds.


Feels Like: 70 °F
Forecast: 67 / 80 °F
Wind: 9 mph from North

Location: Jeddah King Abdul Aziz International Airport

Current Time: Feb 11, 2016 at 12:06:53 AM

Latest Report: Feb 10, 2016 at 11:00 PM


Visibility: N/A

Pressure: 30.04 "Hg

Humidity: 60%

Dew point: 55 °F

Location of JeddahLocation

Historic Weather in Jeddah — Graph

°F

Jeddah Temperature Yesterday

Maximum temperature yesterday: 79 °F (at 1:00 PM)
Minimum temperature yesterday: 66 °F (at 5:00 AM)
Average temperature yesterday: 72 °F

High & Low Weather Summary for the Past Weeks

 TemperatureHumidityPressure
High95 °F (Feb 4, 2:00 PM)79% (Feb 5, 7:00 PM)30.15 "Hg (Feb 5, 7:00 PM)
Low59 °F (Jan 28, 5:00 AM)16% (Feb 4, 2:00 PM)29.86 "Hg (Feb 6, 4:00 AM)
Average73 °F51%30.01 "Hg
* Reported Jan 26 11:00 PM — Feb 10 11:00 PM, Jeddah, Weather by CustomWeather, © 2016

Note: Actual official high and low records may vary slightly from our data, if they occured in-between our weather recording intervals... More about our weather records

Advertising

Jeddah Weather History for the Previous 24 Hours

 ConditionsComfort  
Time TempWeatherWind HumidityBarometerVisibility
11:00 PM
Wed, Feb 10
70 °FPassing clouds.9 mph60%30.04 "HgN/A
10:00 PM70 °FPassing clouds.12 mph60%30.01 "HgN/A
9:00 PM72 °FPassing clouds.14 mph61%30.01 "HgN/A
8:00 PM73 °FPassing clouds.12 mph53%30.01 "HgN/A
7:00 PM73 °FPassing clouds.12 mph53%29.98 "HgN/A
6:00 PM75 °FScattered clouds.16 mph50%29.98 "HgN/A
5:00 PM77 °FScattered clouds.16 mph47%29.95 "HgN/A
4:00 PM77 °FScattered clouds.9 mph51%29.95 "HgN/A
3:00 PM79 °FScattered clouds.12 mph45%29.95 "HgN/A
2:00 PM77 °FScattered clouds.14 mph51%29.95 "HgN/A
1:00 PM79 °FScattered clouds.14 mph48%29.95 "HgN/A
12:00 PM77 °FScattered clouds.12 mph54%29.98 "HgN/A
11:00 AM75 °FScattered clouds.12 mph54%29.98 "HgN/A
10:00 AM75 °FScattered clouds.5 mph50%30.01 "HgN/A
9:00 AM73 °FScattered clouds.No wind53%29.98 "HgN/A
8:00 AM72 °FScattered clouds.No wind61%29.98 "HgN/A
7:00 AM68 °FPassing clouds.3 mph69%29.95 "HgN/A
6:00 AM66 °FClear.3 mph73%29.92 "Hg10 mi
5:00 AM66 °FClear.No wind73%29.92 "Hg10 mi
4:00 AM68 °FClear.3 mph69%29.92 "Hg10 mi
3:00 AM68 °FClear.3 mph69%29.92 "Hg10 mi
2:00 AM68 °FClear.3 mph69%29.92 "Hg10 mi
1:00 AM70 °FClear.3 mph69%29.92 "Hg10 mi
12:00 AM72 °FClear.3 mph65%29.95 "Hg10 mi
Weather by CustomWeather, © 2016

See weather overviewHow to use our weather pages